Other Public Products
Issued by NWS Charleston, SC

Home | Current Version | Previous Version | Text Only | Print | Product List | Glossary On
Versions: 1 2 3 4 5 6 7 8 9 10 11 12 13 14 15 16 17 18 19 20 21 22 23 24 25 26 27 28 29 30 31 32 33 34 35 36 37 38 39 40 41 42 43 44 45 46 47 48 49 50
000
FPUS82 KCHS 220127
OPUCHS

TEST...KCHS/KSAV Gateway Observations...TEST
National Weather Service Charleston SC
800 PM EST SAT JAN 21 2017

NOTE: "fair" indicates few or no clouds below 12,000 feet with no
significant weather and/or obstructions to visibility.

SCZ050-WAZ558-NCZ071-TXZ119-213-PAZ071-DCZ001-FLZ074-172-MI076-
NYZ176-178-MAZ016-IL014-TNZ027-NJZ106-GAZ044-MD014-220200-
...Gateway Observations for Charleston International...

CITY           SKY/WX    TMP DP  RH WIND       PRES   REMARKS
Chas Airport   LGT RAIN  61  58  90 S15       29.75S
Seattle        LGT RAIN  46  42  86 CALM      29.48R
Charlotte      CLOUDY    56  53  90 NE6       29.66F
Dallas DFW     CLOUDY    55  51  86 SE9       29.41F
Dallas Love    CLOUDY    56  52  86 SE9       29.44S
Philladelphia  FOG       46  45  96 CALM      29.83F VSB 1/2
Wash National  CLOUDY    48  48 100 CALM      29.81S FOG
Baltimore      DRZL/FOG  45  45 100 SE3       29.81S VSB 1
Miami          PTCLDY    75  61  61 S5        29.91R
Detroit        CLEAR     50  48  93 SE6       29.62S FOG
Newark         FOG       46  45  96 SW8       29.82S VSB 1
Laguardia      CLOUDY    48  44  86 SW7       29.82R FOG
J F K          FOG       45  45 100 SW10      29.84R VSB 1/2
Boston Logan   CLOUDY    52  43  71 W8        29.76S
Ft. Lauderdale CLEAR     74  64  71 S8        29.89S
Chicago O`Hare CLEAR     48  42  80 SW3       29.54R
Chicago Midway PTCLDY    48  40  73 SW5       29.55R
Houston Bush   MOCLDY    64  58  80 CALM      29.46F
Houston Hobby  PTCLDY    69  56  62 CALM      29.46F
Nashville      CLOUDY    61  49  64 CALM      29.64R
Atlanta        MOCLDY    59  57  93 SW5       29.69R

$$

GAZ044-118-TXZ119-213-NCZ071-DCZ001-MDZ014-506-PAZ021-071-NJZ106-
NYZ176-178-MAZ106-OHZ011-021-055-MIZ076-KYZ091-ILZ014-INZ047-
MNZ060-220200-
...Gateway Observations for Savannah International...

CITY           SKY/WX    TMP DP  RH WIND       PRES   REMARKS
Savannah Arpt  CLOUDY    61  58  90 S6        29.72F
Atlanta        MOCLDY    59  57  93 SW5       29.69R
Charlotte      CLOUDY    56  53  90 NE6       29.66F
Dallas DFW     CLOUDY    55  51  86 SE9       29.41F
Houston Bush   MOCLDY    64  58  80 CALM      29.46F
Wash National  CLOUDY    48  48 100 CALM      29.81S FOG
Wash Dulles    FOG       48  47  96 CALM      29.79F VSB 1/4
Baltimore      DRZL/FOG  45  45 100 SE3       29.81S VSB 1
Philadelphia   FOG       46  45  96 CALM      29.83F VSB 1/2
Newark         FOG       46  45  96 SW8       29.82S VSB 1
Laguardia      CLOUDY    48  44  86 SW7       29.82R FOG
J F K          FOG       45  45 100 SW10      29.84R VSB 1/2
Boston         CLOUDY    52  43  71 W8        29.76S
Pittsburg      LGT RAIN  59  51  75 SW5       29.72R
Akron          CLOUDY    56  50  80 S7        29.68F
Cleveland      CLOUDY    59  49  69 S7        29.68S
Cincinnati     CLOUDY    56  52  86 S6        29.63R
Columbus         N/A     54  52  90 SE6       29.64F
Detroit        CLEAR     50  48  93 SE6       29.62S FOG
Chicago O`Hare CLEAR     48  42  80 SW3       29.54R
Minneapolis    FOG       37  35  92 CALM      29.48R VSB 3/4
Indianapolis   MOCLDY    57  50  77 S6        29.59R

$$




USA.gov is the U.S. government's official web portal to all federal, state and local government web resources and services.